Weather observations for the past three days for
Terre Haute Regional Airport
Imperial (Metric)
Date Time (edt) Wind (mph) Vis. (mi.) Weather Sky Cond. Temperature (ºF) Relative Humidity Wind Chill (°F) Heat Index (°F) Pressure Precipitation (in)
Air Dwpt 6 hour altimeter (in) sea level (mb) 1 hr 3 hr 6 hr
Max. Min.
16 04:53 SE 12 7.00 Light Rain FEW065 BKN095 OVC110 70 69.1 97% 29.88 1011.2 0.13 0.53
16 03:53 SE 5 6.00 Thunderstorm in Vicinity Rain Fog/Mist FEW050 BKN090 OVC110 70 69.1 97% 29.89 1011.4 0.38
16 02:53 S 3 10.00 Partly Cloudy FEW080 FEW095 SCT110 71.1 70 96% 29.89 1011.3 0.02
16 01:53 Calm 10.00 Thunderstorm Light Rain FEW075 BKN100 71.1 69.1 90 70 94% 29.91 1012.3 0.1 0.32
16 00:53 N 12 G 28 1.75 Thunderstorm in Vicinity Heavy Rain Fog/Mist FEW012 BKN025 OVC040 70 68 93% 29.95 1013.8 0.22
15 23:53 S 13 10.00 Fair CLR 84 75.9 77% 93 29.83 1009.6
15 22:53 S 12 10.00 Fair CLR 84 75.9 77% 93 29.86 1010.6
15 21:53 S 10 10.00 Fair CLR 86 77 75% 97 29.85 1010.0
15 20:53 S 14 10.00 Fair CLR 88 78.1 73% 102 29.81 1008.8
15 19:53 S 12 10.00 Fair CLR 90 79 93.9 90 70% 106 29.81 1008.9
15 18:53 S 15 G 23 10.00 Fair CLR 93 79 64% 110 29.82 1009.2
15 17:53 SW 10 10.00 Fair CLR 93 79 64% 110 29.84 1009.7
15 16:53 SW 9 10.00 Mostly Cloudy BKN070 93.9 81 66% 115 29.85 1010.3
15 15:53 SW 12 10.00 Mostly Cloudy SCT036 SCT045 BKN070 91.9 80.1 68% 111 29.88 1011.0
15 14:53 SW 12 10.00 A Few Clouds FEW035 93 80.1 66% 112 29.89 1011.7
15 13:53 SW 10 10.00 Overcast OVC065 91 79 91.9 72 68% 108 29.91 1012.2
15 12:53 SW 13 10.00 Fair CLR 90 78.1 68% 105 29.92 1012.5
15 11:53 SW 15 G 23 10.00 Fair CLR 88 77 70% 100 29.93 1012.7
15 10:53 SW 12 10.00 A Few Clouds FEW070 86 75.9 72% 96 29.92 1012.6
15 09:53 S 12 10.00 Mostly Cloudy SCT060 BKN075 80.1 73 79% 84 29.93 1012.9
15 08:53 S 7 10.00 Mostly Cloudy BKN060 75 70 84% 75 29.94 1013.4
15 07:53 Calm 10.00 Fair CLR 72 70 80.1 70 94% 29.96 1013.9 0.13
15 06:53 S 9 10.00 A Few Clouds FEW090 FEW110 71.1 68 90% 29.94 1013.2
15 05:53 SE 3 10.00 Light Rain BKN055 BKN090 BKN110 71.1 68 90% 30 1015.4 0.13
15 04:53 NW 10 G 26 10.00 Light Rain FEW043 BKN050 BKN060 78.1 64.9 64% 80 30.01 1015.5
15 03:53 SW 12 10.00 Fair CLR 80.1 73.9 82% 85 29.96 1014.0
15 02:53 SW 8 10.00 Fair CLR 79 73 82% 82 29.95 1013.6
15 01:53 S 8 10.00 Fair CLR 80.1 73.9 89.1 79 82% 85 29.96 1014.0
15 00:53 S 7 10.00 Fair CLR 82 73.9 77% 88 29.97 1014.3
14 23:53 S 10 10.00 Fair CLR 82 73.9 77% 88 29.96 1013.8
14 22:53 S 12 10.00 Fair CLR 82.9 75 77% 90 29.95 1013.7
14 21:53 S 14 10.00 Fair CLR 84.9 75 72% 93 29.95 1013.7
14 20:53 S 12 10.00 Fair CLR 87.1 77 72% 99 29.96 1013.9
14 19:53 S 12 10.00 Fair CLR 89.1 77 93 89.1 68% 102 29.97 1014.4
14 18:53 S 9 10.00 Fair CLR 91 78.1 66% 106 29.98 1014.6
14 17:53 S 8 10.00 A Few Clouds FEW037 91 78.1 66% 106 29.99 1014.9
14 15:53 SW 10 10.00 A Few Clouds FEW036 91.9 77 62% 106 30.01 1015.5
14 14:53 SW 12 G 20 10.00 A Few Clouds FEW035 91.9 77 62% 106 30.02 1015.8
14 13:53 W 9 10.00 Partly Cloudy FEW034 FEW044 SCT060 91 75.9 91 78.1 61% 103 30.04 1016.6
14 12:53 W 9 10.00 Partly Cloudy SCT038 90 77 66% 103 30.07 1017.6
14 11:53 SW 12 10.00 Fair CLR 88 75.9 68% 99 30.08 1017.8
14 10:53 SW 13 10.00 Fair CLR 87.1 75.9 70% 98 30.08 1017.8
14 09:53 SW 12 10.00 Fair CLR 84 75 74% 92 30.08 1017.9
14 08:53 SW 12 10.00 Fair CLR 81 75 82% 87 30.09 1018.3
14 07:53 S 9 10.00 Fair CLR 78.1 75 78.1 75 90% 81 30.09 1018.3
14 06:53 S 7 8.00 Fair CLR 75.9 73.9 94% 75 30.07 1017.6
14 05:53 S 5 10.00 A Few Clouds FEW120 75.9 73.9 94% 75 30.06 1017.4
14 04:53 SW 5 10.00 Partly Cloudy SCT110 75.9 73 91% 76 30.08 1018.0
14 03:53 S 5 10.00 Fair CLR 77 73.9 90% 78 30.09 1018.2
14 02:53 S 8 10.00 Fair CLR 77 73.9 90% 78 30.09 1018.4
14 01:53 S 6 10.00 Fair CLR 77 73.9 87.1 75.9 90% 78 30.12 1019.3
14 00:53 S 6 10.00 Light Rain CLR 77 73.9 90% 78 30.13 1019.6
13 23:53 S 7 10.00 Light Rain CLR 78.1 73.9 87% 81 30.12 1019.5
13 22:53 S 6 10.00 Fair CLR 79 73.9 85% 83 30.12 1019.2
13 21:53 SE 6 10.00 Fair CLR 79 73.9 85% 83 30.11 1019.0
13 20:53 SE 5 10.00 Fair CLR 82.9 73 72% 89 30.11 1019.1
13 19:53 S 6 10.00 Fair CLR 87.1 73 91 87.1 63% 95 30.11 1019.2
13 18:53 S 7 10.00 Fair CLR 89.1 73 59% 97 30.12 1019.5
13 17:53 SW 7 10.00 Fair CLR 90 71.1 54% 96 30.13 1019.7
13 16:53 S 9 10.00 A Few Clouds FEW042 90 73 58% 98 30.14 1019.9
13 15:53 S 12 G 17 10.00 A Few Clouds FEW037 90 73.9 59% 99 30.14 1020.1
13 14:53 SW 7 10.00 A Few Clouds FEW090 90 73.9 59% 99 30.17 1021.0
13 13:53 S 9 10.00 A Few Clouds FEW035 89.1 75 89.1 71.1 63% 99 30.19 1021.5
13 12:53 Calm 10.00 Fair CLR 87.1 75 67% 97 30.19 1022.0
13 11:53 S 6 10.00 Fair CLR 84.9 75 72% 93 30.19 1021.8
13 10:53 S 7 10.00 Fair CLR 84 75.9 77% 93 30.19 1021.7
13 09:53 Calm 10.00 Fair CLR 80.1 73.9 82% 85 30.2 1022.1
13 08:53 Calm 7.00 A Few Clouds FEW003 75.9 73.9 94% 75 30.2 1022.0
13 07:53 Calm 4.00 Fog/Mist OVC001 71.1 71.1 72 66.9 100% 30.19 1021.7
13 06:53 Calm 0.25 Fog VV001 68 68 100% 30.17 1021.3
13 05:53 S 3 1.25 Fog/Mist OVC002 68 66.9 96% 30.16 1020.9
Date Time (edt) Wind (mph) Vis. (mi.) Weather Sky Cond. Air Dwpt Max. Min. Relative Humidity Wind Chill (°F) Heat Index (°F) altimeter (in) sea level (mb) 1 hr 3 hr 6 hr
6 hour
Temperature (ºF) Pressure Precipitation (in)